THORAD AGENA D DEB

Satellite information

Favourite Embed

Satellite Type and Status

DEBRISIN ORBIT

Key statistics

Satellite THORAD AGENA D DEB at a glance.

Uptime

20179

Days in orbit

Revolutions

≈ 14.5

Per day

Orbit

SSO

Sun Synchronous Orbit

Inclination

99.7

Latest

Satellite identification and parameters

Extended collection of information and parameters for THORAD AGENA D DEB.

Object identification

Identified? True

Debris? True

Object name: THORAD AGENA D DEB

International designator: 1970-025FT

Object number (NORAD): 4921

Object ID (CCSDS): 4921

Country: UNITED STATES OF AMERICA (US)

Current information (Y/N): Y

RCS size: SMALL

Orbital parameters

Period: 99.377 minutes

Inclination: 99.7165 deg

SMA: 7106.95 km

Apoapsis: 757.856 km

Periapsis: 699.775 km

RAAN: 302.207 deg

Eccentricy: 0.0040862

Argument of periapsis: 23.3232 deg

Mean anomaly: 336.98 deg

Mean motion: 14.49031524 rev/day

Mean motion (dot): 0.00004565 rev/day2

B* drag term: 0.0012049 1/REarth

Two-line elements (TLE)

Creation date: July 6, 2025, 6:05 p.m.

Reference frame: TEME

Reference center: EARTH

Epoch: July 6, 2025, 5:36 a.m. UTC

TLE line 0: 0 THORAD AGENA D DEB

TLE line 1: 1 04921U 70025FT 25187.23363678 .00004565 00000-0 12049-2 0 9999

TLE line 2: 2 04921 99.7165 302.2070 0040862 23.3232 336.9800 14.49031524825371

Live tracking on map

Real-time ground track for satellite THORAD AGENA D DEB.

In-orbit conjunctions

A list of the most updated potential collisions computed for object THORAD AGENA D DEB.

Target Orbit TCA Probability of collision Miss distance Type
CZ-6A DEB LEO 2025-06-29 16:42:52 0.0004590566 118.0 (m) DEBRIS
CZ-6A DEB LEO 2025-05-09 00:43:46 0.000104849 193.0 (m) DEBRIS
TIROS 3 LEO 2025-02-27 09:01:58 0.0001014383 564.0 (m) PAYLOAD

Associated space launch

Meteorological research and development satellite

THORAD AGENA D DEB was lifted into orbit during the mission ‘Thorad SLV-2G Agena D | Nimbus 4’, on board a Thorad SLV-2G Agena D space rocket.

The launch took place on April 8, 1970, 8:17 a.m. from Space Launch Complex 2E.

For more information about the launch, click the button.

Launch to space Thorad SLV-2G Agena D | Nimbus 4
Thorad SLV-2G Agena D | Nimbus 4

Agency: N/A

Status: Launch Successful

Launch date: April 8, 1970, 8:17 a.m. UTC

Rocket: Thorad SLV-2G Agena D

Launch pad: Space Launch Complex 2E

Location: Vandenberg SFB, CA, USA

...

Latest news about this satellite

There are no fresh news available about this satellite. Check back as we update our databases every day.


Newsletter sign-up

Weekly statistics, charts and insights to help you stay on top of the space industry.